Home > Weather > Korneuburg > Past weeks

Flag for Austria Past Weather in Korneuburg, Lower Austria, Austria — Yesterday and Last 2 Weeks

Now
71 °F

Scattered clouds.


Feels Like: 73 °F
Forecast: 65 / 76 °F
Wind: 3 mph from Northwest

Location: Wien / Hohe Warte

Current Time: Jul 27, 2016 at 7:50:59 AM

Latest Report: Jul 27, 2016 at 7:00 AM


Visibility: 13 mi

Pressure: 30.02 "Hg

Humidity: 76%

Dew Point: 63 °F

Location of KorneuburgLocation

Past Weather in Korneuburg — Graph

°F

Korneuburg Temperature Yesterday

Maximum temperature yesterday: 84 °F (at 3:00 PM)
Minimum temperature yesterday: 71 °F (at 6:00 AM)
Average temperature yesterday: 77 °F

High & Low Weather Summary for the Past Weeks

 TemperatureHumidityPressure
High86 °F (Jul 21, 3:00 PM)96% (Jul 23, 6:00 AM)30.22 "Hg (Jul 23, 6:00 AM)
Low55 °F (Jul 14, 6:00 AM)41% (Jul 19, 6:00 PM)29.76 "Hg (Jul 14, 7:00 AM)
Average71 °F70%30.01 "Hg
* Reported Jul 12 6:00 AM — Jul 27 6:00 AM, Korneuburg, Weather by CustomWeather, © 2016

Note: Actual official high and low records may vary slightly from our data, if they occured in-between our weather recording intervals... More about our weather records

Advertising

Korneuburg Weather History for the Previous 24 Hours

Scroll right to see more
 ConditionsComfort  
Time TempWeatherWind HumidityBarometerVisibility
6:00 AM
Wed, Jul 27
69 °FPartly sunny.3 mph80%30.01 "Hg11 mi
5:00 AM70 °FMild.5 mph79%30.01 "HgN/A
4:00 AM71 °FMild.5 mph76%30.01 "HgN/A
3:00 AM72 °FMild.1 mph70%30.01 "HgN/A
2:00 AM73 °FPassing clouds.6 mph68%30.00 "Hg19 mi
1:00 AM74 °FMild.6 mph66%30.01 "HgN/A
10:00 PM
Tue, Jul 26
76 °FOvercast.5 mph68%30.00 "Hg19 mi
9:00 PM76 °FOvercast.2 mph66%30.00 "Hg19 mi
8:00 PM76 °FPartly sunny.2 mph70%30.00 "Hg16 mi
7:00 PM77 °FPartly sunny.3 mph69%29.98 "Hg19 mi
6:00 PM80 °FPartly sunny.5 mph60%29.97 "Hg17 mi
5:00 PM83 °FPartly sunny.5 mph50%29.96 "Hg17 mi
4:00 PM78 °FPartly sunny.3 mph56%29.97 "Hg17 mi
3:00 PM84 °FScattered clouds.6 mph49%29.97 "Hg17 mi
2:00 PM84 °FPassing clouds.5 mph55%29.98 "Hg17 mi
1:00 PM82 °FPassing clouds.2 mph60%30.00 "Hg17 mi
12:00 PM81 °FPassing clouds.3 mph60%30.01 "Hg17 mi
11:00 AM80 °FPassing clouds.5 mph64%30.01 "Hg17 mi
10:00 AM79 °FPassing clouds.3 mph65%30.01 "Hg19 mi
9:00 AM76 °FPassing clouds.3 mph67%30.02 "Hg19 mi
8:00 AM75 °FPassing clouds.2 mph70%30.02 "Hg19 mi
7:00 AM72 °FScattered clouds.5 mph77%30.02 "Hg22 mi
Weather by CustomWeather, © 2016

See weather overviewHow to use our weather pages